Coolangatta, Australia

4:31 PM AEST on April 23, 2017 (GMT +1000)
Coolangatta

Weather History for YBCG - February, 2014

Change the Weather History Date:

Tuesday, February 25, 2014

  Actual Average Record
Temperature  
Mean Temperature 73 °F -  
Max Temperature 80 °F - - ()
Min Temperature 66 °F - - ()
Cooling Degree Days 8    
Growing Degree Days 23 (Base 50)    
Moisture  
Dew Point 64 °F    
Average Humidity 73    
Maximum Humidity 94    
Minimum Humidity 40    
Precipitation  
Precipitation 0.00 in - - ()
Sea Level Pressure  
Sea Level Pressure 30.00 in    
Wind  
Wind Speed 7 mph ()    
Max Wind Speed 14 mph    
Max Gust Speed -    
Visibility 6.0 miles    
Events      
T = Trace of Precipitation, MM = Missing Value Source: Averaged Metar Reports

Daily Weather History Graph

Daily Weather History Graph

Search for Another Location

Airport or City:

Trip Planner

Search our weather history database for the weather conditions in past years. The results will help you decide how hot, cold, wet, or windy it might be!

Date:

Astronomy

Feb. 25, 2014 Rise Set
Actual Time 5:35 AM AEST 6:22 PM AEST
Civil Twilight 5:11 AM AEST 6:46 PM AEST
Nautical Twilight 4:42 AM AEST 7:14 PM AEST
Astronomical Twilight 4:14 AM AEST 7:43 PM AEST
Moon 12:49 AM AEST (2/25) 2:44 PM AEST (2/25)
Length of Visible Light 13h 35m
Length of Day
12h 47m
Waning Crescent, 24% of the Moon is Illuminated
Feb 25
Waning Crescent
Mar 1
New
Mar 8
First Quarter
Mar 17
Full
Mar 24
Last Quarter

Hourly Weather History & Observations

Time (AEST) Temp. Heat Index Dew Point Humidity Pressure Visibility Wind Dir Wind Speed Gust Speed Precip Events Conditions
12:00 AM 68 °F - 66 °F 91% 30.04 in - SW 6.9 mph - -   Overcast
12:00 AM 68.0 °F - 66.2 °F 94% 30.04 in 6.2 mi SW 6.9 mph - N/A   Overcast
12:11 AM 68.0 °F - 66.2 °F 94% 30.04 in 3.1 mi SSW 5.8 mph - N/A   Overcast
12:30 AM 68.0 °F - 66.2 °F 94% 30.04 in 4.3 mi South 6.9 mph - N/A   Overcast
1:00 AM 68.0 °F - 66.2 °F 94% 30.01 in 6.2 mi SSW 5.8 mph - N/A   Overcast
1:30 AM 68.0 °F - 66.2 °F 94% 30.01 in 6.2 mi SSW 6.9 mph - N/A   Overcast
2:00 AM 68.0 °F - 66.2 °F 94% 30.01 in 6.2 mi SW 5.8 mph - N/A   Overcast
2:30 AM 68.0 °F - 66.2 °F 94% 30.01 in 6.2 mi North 2.3 mph - N/A   Overcast
3:00 AM 68 °F - 66 °F 90% 30.00 in - SSW 6.9 mph - -   Overcast
3:00 AM 68.0 °F - 66.2 °F 94% 29.98 in 6.2 mi SSW 6.9 mph - N/A   Overcast
3:08 AM 68.0 °F - 66.2 °F 94% 30.01 in 3.1 mi SSW 6.9 mph - N/A   Overcast
3:30 AM 68.0 °F - 66.2 °F 94% 29.98 in 3.1 mi SW 5.8 mph - N/A   Overcast
4:00 AM 68.0 °F - 66.2 °F 94% 29.98 in 6.2 mi South 3.5 mph - N/A   Overcast
4:30 AM 68.0 °F - 66.2 °F 94% 29.98 in 6.2 mi SW 8.1 mph - N/A   Mostly Cloudy
5:00 AM 68.0 °F - 66.2 °F 94% 30.01 in 6.2 mi SW 6.9 mph - N/A   Mostly Cloudy
5:30 AM 68.0 °F - 64.4 °F 88% 30.01 in 6.2 mi SW 4.6 mph - N/A   Mostly Cloudy
6:00 AM 68 °F - 65 °F 89% 30.02 in - SW 4.6 mph - -   Overcast
6:00 AM 68.0 °F - 66.2 °F 94% 30.01 in 6.2 mi SSW 4.6 mph - N/A   Overcast
6:30 AM 69.8 °F - 66.2 °F 88% 30.04 in 6.2 mi SW 5.8 mph - N/A   Overcast
7:00 AM 71.6 °F - 66.2 °F 83% 30.04 in 6.2 mi South 5.8 mph - N/A   Scattered Clouds
7:30 AM 73.4 °F - 66.2 °F 78% 30.04 in 6.2 mi SSW 6.9 mph - N/A   Unknown
8:00 AM 75.2 °F - 64.4 °F 69% 30.04 in 6.2 mi South 6.9 mph - N/A   Unknown
8:30 AM 77.0 °F - 64.4 °F 65% 30.04 in 6.2 mi South 8.1 mph - N/A   Unknown
9:00 AM 78 °F - 65 °F 55% 30.05 in - South 6.9 mph - -  
9:00 AM 77.0 °F - 64.4 °F 65% 30.04 in 6.2 mi South 6.9 mph - N/A   Scattered Clouds
9:30 AM 78.8 °F - 62.6 °F 57% 30.04 in 6.2 mi ESE 12.7 mph - N/A   Scattered Clouds
10:00 AM 80.6 °F 81.8 °F 62.6 °F 54% 30.04 in 6.2 mi ESE 11.5 mph - N/A   Scattered Clouds
10:30 AM 78.8 °F - 64.4 °F 61% 30.04 in 6.2 mi ESE 11.5 mph - N/A   Scattered Clouds
11:00 AM 80.6 °F 82.3 °F 64.4 °F 58% 30.04 in 6.2 mi ESE 12.7 mph - N/A   Scattered Clouds
11:30 AM 80.6 °F 81.5 °F 60.8 °F 51% 30.01 in 6.2 mi East 12.7 mph - N/A   Scattered Clouds
12:00 PM 80 °F - 60 °F 40% 30.01 in - SE 13.8 mph - -  
12:00 PM 80.6 °F 81.5 °F 60.8 °F 51% 30.01 in 6.2 mi SE 13.8 mph - N/A   Scattered Clouds
12:30 PM 80.6 °F 81.8 °F 62.6 °F 54% 30.01 in 6.2 mi ESE 11.5 mph - N/A   Scattered Clouds
1:00 PM 80.6 °F 82.3 °F 64.4 °F 58% 29.98 in 6.2 mi SE 12.7 mph - N/A   Unknown
1:30 PM 80.6 °F 82.3 °F 64.4 °F 58% 29.98 in 6.2 mi SSE 12.7 mph - N/A   Scattered Clouds
2:00 PM 80.6 °F 82.3 °F 64.4 °F 58% 29.98 in 6.2 mi SE 12.7 mph - N/A   Unknown
2:30 PM 80.6 °F 82.3 °F 64.4 °F 58% 29.95 in 6.2 mi ESE 12.7 mph - N/A   Scattered Clouds
3:00 PM 79 °F - 63 °F 49% 29.96 in - ESE 12.7 mph - -  
3:00 PM 78.8 °F - 62.6 °F 57% 29.95 in 6.2 mi ESE 12.7 mph - N/A   Scattered Clouds
3:30 PM 78.8 °F - 62.6 °F 57% 29.95 in 6.2 mi ESE 13.8 mph - N/A   Unknown
4:00 PM 78.8 °F - 62.6 °F 57% 29.95 in 6.2 mi ESE 12.7 mph - N/A   Unknown
4:30 PM 78.8 °F - 62.6 °F 57% 29.95 in 6.2 mi SE 12.7 mph - N/A   Unknown
5:00 PM 77.0 °F - 60.8 °F 57% 29.95 in 6.2 mi SE 13.8 mph - N/A   Unknown
5:30 PM 77.0 °F - 60.8 °F 57% 29.95 in 6.2 mi ESE 11.5 mph - N/A   Unknown
6:00 PM 75 °F - 62 °F 54% 29.96 in - SE 11.5 mph - -  
6:00 PM 75.2 °F - 60.8 °F 61% 29.95 in 6.2 mi SE 11.5 mph - N/A   Unknown
6:30 PM 73.4 °F - 60.8 °F 65% 29.98 in 6.2 mi SE 8.1 mph - N/A   Unknown
7:00 PM 73.4 °F - 62.6 °F 69% 29.98 in 6.2 mi ESE 6.9 mph - N/A   Unknown
7:30 PM 73.4 °F - 62.6 °F 69% 29.98 in 6.2 mi SE 6.9 mph - N/A   Unknown
8:00 PM 71.6 °F - 62.6 °F 73% 30.01 in 6.2 mi SE 5.8 mph - N/A   Scattered Clouds
8:30 PM 71.6 °F - 62.6 °F 73% 30.01 in 6.2 mi SE 5.8 mph - N/A   Scattered Clouds
9:00 PM 73 °F - 63 °F 62% 30.01 in - ESE 5.8 mph - -  
9:00 PM 73.4 °F - 62.6 °F 69% 30.01 in 6.2 mi ESE 5.8 mph - N/A   Scattered Clouds
9:30 PM 69.8 °F - 62.6 °F 78% 30.01 in 6.2 mi WSW 6.9 mph - N/A   Scattered Clouds
10:00 PM 68.0 °F - 62.6 °F 83% 30.01 in 6.2 mi WSW 5.8 mph - N/A   Scattered Clouds
10:30 PM 68.0 °F - 62.6 °F 83% 30.01 in 6.2 mi WSW 5.8 mph - N/A   Scattered Clouds
11:00 PM 66.2 °F - 62.6 °F 88% 30.01 in 6.2 mi WSW 4.6 mph - N/A   Scattered Clouds
11:30 PM 66.2 °F - 62.6 °F 88% 29.98 in 6.2 mi WSW 4.6 mph - N/A   Scattered Clouds